SAS78T ENSB-ENTC

Flight info

Callsign SAS78T
Flight time 1h 22m
Altitude 39000
Route AMPIS P853 LOMVI
Aircraft A20N/M-SDE3FGIJ1RWXY/ALB1

Departure

Time 2026-04-27 10:02
Airport Svalbard Airport, Longyear (ENSB)

Arrival

Time 2026-04-27 11:24
Airport Tromsø Airport (ENTC)
Time Latitude Longitude Altitude Speed Heading
2026-04-27 09:47 78.24642 15.49105 97 ft 0 kts 287°
2026-04-27 09:56 78.24642 15.49104 97 ft 0 kts 287°
2026-04-27 09:56 78.24650 15.48992 97 ft 7 kts 287°
2026-04-27 09:56 78.24641 15.48796 100 ft 4 kts 212°
2026-04-27 09:57 78.24606 15.48681 100 ft 7 kts 228°
2026-04-27 09:57 78.24589 15.48358 103 ft 11 kts 261°
2026-04-27 09:57 78.24551 15.48041 104 ft 10 kts 236°
2026-04-27 09:57 78.24551 15.47667 104 ft 12 kts 284°
2026-04-27 09:58 78.24575 15.47254 105 ft 13 kts 285°
2026-04-27 09:58 78.24601 15.46808 105 ft 14 kts 285°
2026-04-27 09:58 78.24627 15.46330 105 ft 15 kts 284°
2026-04-27 09:58 78.24655 15.45823 105 ft 16 kts 285°
2026-04-27 09:59 78.24686 15.45280 105 ft 17 kts 285°
2026-04-27 09:59 78.24719 15.44690 103 ft 18 kts 284°
2026-04-27 09:59 78.24755 15.44049 101 ft 20 kts 285°
2026-04-27 09:59 78.24796 15.43346 96 ft 22 kts 284°
2026-04-27 10:00 78.24837 15.42574 91 ft 24 kts 285°
2026-04-27 10:00 78.24877 15.41862 86 ft 16 kts 284°
2026-04-27 10:00 78.24903 15.41418 83 ft 10 kts 294°
2026-04-27 10:00 78.24926 15.41182 82 ft 5 kts 229°
2026-04-27 10:01 78.24906 15.41324 83 ft 7 kts 102°
2026-04-27 10:01 78.24904 15.41379 83 ft 1 kts 104°
2026-04-27 10:01 78.24897 15.41494 84 ft 24 kts 104°
2026-04-27 10:01 78.24777 15.43653 99 ft 104 kts 104°
2026-04-27 10:02 78.24531 15.48084 194 ft 157 kts 104°
2026-04-27 10:02 78.24240 15.53298 888 ft 161 kts 104°
2026-04-27 10:02 78.23951 15.58411 1776 ft 158 kts 103°
2026-04-27 10:02 78.23657 15.63637 2453 ft 170 kts 103°
2026-04-27 10:03 78.23286 15.69384 3070 ft 188 kts 112°
2026-04-27 10:03 78.22591 15.75131 3704 ft 206 kts 124°
2026-04-27 10:03 78.21706 15.80970 4318 ft 225 kts 126°
2026-04-27 10:03 78.20715 15.87288 5013 ft 242 kts 126°
2026-04-27 10:04 78.19692 15.93785 6050 ft 245 kts 126°
2026-04-27 10:04 78.18680 16.00249 7065 ft 248 kts 126°
2026-04-27 10:04 78.17672 16.07103 8050 ft 252 kts 122°
2026-04-27 10:04 78.16724 16.14461 8784 ft 267 kts 121°
2026-04-27 10:05 78.15723 16.22293 9532 ft 281 kts 121°
2026-04-27 10:05 78.14690 16.30349 10491 ft 285 kts 121°
2026-04-27 10:05 78.13618 16.38652 11214 ft 299 kts 121°
2026-04-27 10:05 78.12498 16.47287 11940 ft 310 kts 121°
2026-04-27 10:06 78.11348 16.56127 12862 ft 315 kts 121°
2026-04-27 10:06 78.10199 16.64911 13724 ft 319 kts 121°
2026-04-27 10:06 78.08997 16.74075 14596 ft 324 kts 122°
2026-04-27 10:06 78.07782 16.83281 15464 ft 328 kts 122°
2026-04-27 10:07 78.06549 16.92587 16298 ft 333 kts 122°
2026-04-27 10:07 78.05298 17.01982 17096 ft 338 kts 122°
2026-04-27 10:07 78.04022 17.11527 17866 ft 342 kts 122°
2026-04-27 10:07 78.02724 17.21178 18652 ft 346 kts 122°
2026-04-27 10:08 78.01421 17.30817 19400 ft 350 kts 122°
2026-04-27 10:08 78.00084 17.40644 20121 ft 354 kts 122°
2026-04-27 10:08 77.98747 17.50436 20826 ft 358 kts 122°
2026-04-27 10:08 77.97357 17.60520 21507 ft 362 kts 124°
2026-04-27 10:09 77.95594 17.69136 22109 ft 367 kts 148°
2026-04-27 10:09 77.93243 17.73584 22743 ft 369 kts 171°
2026-04-27 10:09 77.90704 17.74844 23406 ft 372 kts 176°
2026-04-27 10:09 77.88127 17.75938 24015 ft 376 kts 176°
2026-04-27 10:10 77.85521 17.77103 24616 ft 379 kts 175°
2026-04-27 10:10 77.82896 17.78319 25200 ft 382 kts 175°
2026-04-27 10:10 77.80254 17.79567 25722 ft 385 kts 175°
2026-04-27 10:10 77.77590 17.80839 26213 ft 389 kts 175°
2026-04-27 10:11 77.74903 17.82123 26699 ft 392 kts 175°
2026-04-27 10:11 77.72214 17.83406 27171 ft 395 kts 175°
2026-04-27 10:11 77.69475 17.84710 27588 ft 399 kts 175°
2026-04-27 10:11 77.66744 17.86007 27983 ft 402 kts 175°
2026-04-27 10:12 77.63951 17.87328 28382 ft 405 kts 175°
2026-04-27 10:12 77.61138 17.88654 28766 ft 408 kts 175°
2026-04-27 10:12 77.58344 17.89963 29137 ft 411 kts 175°
2026-04-27 10:12 77.55502 17.91292 29503 ft 414 kts 175°
2026-04-27 10:13 77.52621 17.92631 29853 ft 418 kts 175°
2026-04-27 10:13 77.49737 17.93964 30196 ft 421 kts 175°
2026-04-27 10:13 77.46859 17.95291 30525 ft 423 kts 175°
2026-04-27 10:13 77.43928 17.96634 30848 ft 426 kts 175°
2026-04-27 10:14 77.40972 17.97982 31095 ft 429 kts 175°
2026-04-27 10:14 77.38028 17.99316 31339 ft 431 kts 175°
2026-04-27 10:14 77.35044 18.00660 31580 ft 433 kts 175°
2026-04-27 10:14 77.32056 18.02000 31815 ft 435 kts 175°
2026-04-27 10:15 77.29040 18.03349 32050 ft 437 kts 175°
2026-04-27 10:15 77.26032 18.04696 32305 ft 439 kts 175°
2026-04-27 10:15 77.23015 18.06080 32582 ft 439 kts 175°
2026-04-27 10:15 77.20029 18.07457 32881 ft 439 kts 175°
2026-04-27 10:16 77.17007 18.08844 33160 ft 438 kts 175°
2026-04-27 10:16 77.13970 18.10227 33448 ft 439 kts 175°
2026-04-27 10:16 77.10948 18.11589 33794 ft 439 kts 175°
2026-04-27 10:16 77.07938 18.12939 34160 ft 438 kts 175°
2026-04-27 10:17 77.04927 18.14284 34522 ft 437 kts 175°
2026-04-27 10:17 77.01915 18.15622 34866 ft 436 kts 175°
2026-04-27 10:17 76.98941 18.16940 35191 ft 436 kts 175°
2026-04-27 10:17 76.95926 18.18269 35491 ft 436 kts 175°
2026-04-27 10:18 76.92913 18.19589 35769 ft 436 kts 175°
2026-04-27 10:18 76.89890 18.20908 36043 ft 436 kts 175°
2026-04-27 10:18 76.86919 18.22198 36301 ft 437 kts 175°
2026-04-27 10:18 76.83904 18.23500 36554 ft 437 kts 175°
2026-04-27 10:19 76.80982 18.24757 36782 ft 437 kts 175°
2026-04-27 10:19 76.77959 18.26050 37009 ft 437 kts 175°
2026-04-27 10:19 76.75029 18.27300 37221 ft 437 kts 175°
2026-04-27 10:19 76.72024 18.28576 37428 ft 438 kts 175°
2026-04-27 10:20 76.69014 18.29847 37610 ft 438 kts 175°
2026-04-27 10:20 76.65988 18.31118 37797 ft 440 kts 175°
2026-04-27 10:20 76.62957 18.32384 37977 ft 441 kts 175°
2026-04-27 10:20 76.59927 18.33642 38164 ft 442 kts 175°
2026-04-27 10:21 76.56874 18.34905 38354 ft 442 kts 175°
2026-04-27 10:21 76.53830 18.36158 38518 ft 443 kts 175°
2026-04-27 10:21 76.50793 18.37404 38675 ft 444 kts 175°
2026-04-27 10:21 76.47721 18.38660 38813 ft 445 kts 175°
2026-04-27 10:22 76.44651 18.39911 38948 ft 446 kts 175°
2026-04-27 10:22 76.41580 18.41141 39084 ft 448 kts 175°
2026-04-27 10:22 76.38477 18.42362 39207 ft 449 kts 175°
2026-04-27 10:22 76.35395 18.43562 39211 ft 450 kts 175°
2026-04-27 10:23 76.29188 18.45957 39217 ft 450 kts 175°
2026-04-27 10:23 76.23005 18.48319 39216 ft 450 kts 175°
2026-04-27 10:24 76.16801 18.50667 39216 ft 450 kts 175°
2026-04-27 10:24 76.10599 18.52993 39217 ft 450 kts 175°
2026-04-27 10:25 76.04398 18.55298 39217 ft 450 kts 175°
2026-04-27 10:25 75.98181 18.57591 39219 ft 451 kts 175°
2026-04-27 10:26 75.91980 18.59859 39225 ft 451 kts 175°
2026-04-27 10:26 75.85829 18.62089 39227 ft 451 kts 175°
2026-04-27 10:27 75.79722 18.64284 39227 ft 451 kts 175°
2026-04-27 10:27 75.73504 18.66498 39227 ft 452 kts 176°
2026-04-27 10:28 75.67252 18.68703 39227 ft 451 kts 176°
2026-04-27 10:28 75.61053 18.70874 39227 ft 451 kts 176°
2026-04-27 10:29 75.54852 18.73027 39227 ft 452 kts 176°
2026-04-27 10:29 75.48761 18.75126 39227 ft 452 kts 176°
2026-04-27 10:30 75.42537 18.77250 39228 ft 452 kts 176°
2026-04-27 10:30 75.36294 18.79364 39227 ft 453 kts 176°
2026-04-27 10:31 75.30064 18.81455 39228 ft 452 kts 176°
2026-04-27 10:31 75.23832 18.83531 39228 ft 453 kts 176°
2026-04-27 10:32 75.17603 18.85588 39228 ft 453 kts 176°
2026-04-27 10:32 75.11350 18.87636 39228 ft 453 kts 176°
2026-04-27 10:33 75.05097 18.89668 39228 ft 454 kts 176°
2026-04-27 10:33 74.98993 18.91635 39228 ft 454 kts 176°
2026-04-27 10:34 74.92735 18.93634 39227 ft 454 kts 176°
2026-04-27 10:34 74.86493 18.95612 39226 ft 453 kts 176°
2026-04-27 10:35 74.80252 18.97576 39224 ft 453 kts 176°
2026-04-27 10:35 74.74003 18.99526 39216 ft 454 kts 176°
2026-04-27 10:36 74.67873 19.01423 39209 ft 454 kts 176°
2026-04-27 10:36 74.61582 19.03355 39205 ft 455 kts 176°
2026-04-27 10:37 74.55286 19.05272 39204 ft 455 kts 176°
2026-04-27 10:37 74.49039 19.07159 39203 ft 455 kts 176°
2026-04-27 10:38 74.42745 19.09045 39203 ft 454 kts 176°
2026-04-27 10:38 74.36498 19.10906 39204 ft 455 kts 176°
2026-04-27 10:39 74.30210 19.12764 39205 ft 455 kts 176°
2026-04-27 10:39 74.23931 19.14600 39206 ft 455 kts 176°
2026-04-27 10:40 74.17673 19.16417 39207 ft 455 kts 176°
2026-04-27 10:40 74.11368 19.18236 39207 ft 455 kts 176°
2026-04-27 10:41 74.05100 19.20029 39207 ft 455 kts 176°
2026-04-27 10:41 73.98827 19.21811 39207 ft 455 kts 176°
2026-04-27 10:42 73.92539 19.23582 39207 ft 455 kts 176°
2026-04-27 10:42 73.86304 19.25322 39207 ft 456 kts 176°
2026-04-27 10:43 73.80135 19.27034 39207 ft 456 kts 176°
2026-04-27 10:43 73.73827 19.28772 39207 ft 456 kts 176°
2026-04-27 10:44 73.67559 19.30485 39207 ft 457 kts 176°
2026-04-27 10:44 73.61235 19.32200 39207 ft 457 kts 176°
2026-04-27 10:45 73.54942 19.33895 39207 ft 457 kts 176°
2026-04-27 10:45 73.48618 19.35586 39207 ft 457 kts 176°
2026-04-27 10:46 73.42329 19.37256 39207 ft 458 kts 176°
2026-04-27 10:46 73.35976 19.38928 39207 ft 458 kts 176°
2026-04-27 10:47 73.29665 19.40575 39207 ft 458 kts 176°
2026-04-27 10:47 73.23344 19.42216 39207 ft 458 kts 176°
2026-04-27 10:48 73.17030 19.43841 39206 ft 458 kts 176°
2026-04-27 10:48 73.10862 19.45418 39206 ft 458 kts 176°
2026-04-27 10:49 73.04519 19.47027 39206 ft 458 kts 176°
2026-04-27 10:49 72.98197 19.48621 39206 ft 459 kts 176°
2026-04-27 10:50 72.91843 19.50211 39207 ft 459 kts 176°
2026-04-27 10:50 72.85593 19.51765 39208 ft 459 kts 176°
2026-04-27 10:51 72.79288 19.53319 39209 ft 459 kts 176°
2026-04-27 10:51 72.72924 19.54875 39210 ft 459 kts 176°
2026-04-27 10:52 72.66551 19.56423 39210 ft 459 kts 176°
2026-04-27 10:52 72.60246 19.57945 39209 ft 459 kts 176°
2026-04-27 10:53 72.50713 19.60227 39209 ft 460 kts 176°
2026-04-27 10:54 72.44367 19.61734 39212 ft 460 kts 176°
2026-04-27 10:54 72.38051 19.63219 39211 ft 460 kts 176°
2026-04-27 10:55 72.31675 19.64706 39213 ft 460 kts 176°
2026-04-27 10:55 72.25537 19.66127 39214 ft 460 kts 177°
2026-04-27 10:56 72.19179 19.67586 39213 ft 460 kts 177°
2026-04-27 10:56 72.12842 19.68970 39215 ft 460 kts 179°
2026-04-27 10:57 72.06493 19.68670 39221 ft 459 kts 186°
2026-04-27 10:57 72.00156 19.65911 39227 ft 459 kts 191°
2026-04-27 10:58 71.94040 19.62782 39228 ft 459 kts 190°
2026-04-27 10:58 71.87766 19.59693 39227 ft 459 kts 190°
2026-04-27 10:59 71.81468 19.56587 39229 ft 459 kts 190°
2026-04-27 10:59 71.75304 19.53555 39228 ft 460 kts 190°
2026-04-27 11:00 71.65861 19.48941 39230 ft 460 kts 190°
2026-04-27 11:00 71.59577 19.45893 39010 ft 460 kts 190°
2026-04-27 11:01 71.56444 19.44383 38597 ft 456 kts 190°
2026-04-27 11:01 71.53313 19.42879 37523 ft 461 kts 190°
2026-04-27 11:01 71.50159 19.41368 36286 ft 469 kts 191°
2026-04-27 11:01 71.46952 19.39835 35045 ft 473 kts 191°
2026-04-27 11:02 71.43740 19.38305 33812 ft 476 kts 191°
2026-04-27 11:02 71.40505 19.36770 32659 ft 477 kts 191°
2026-04-27 11:02 71.37291 19.35249 31578 ft 477 kts 191°
2026-04-27 11:02 71.34041 19.33717 30788 ft 468 kts 190°
2026-04-27 11:03 71.30876 19.32231 29987 ft 458 kts 189°
2026-04-27 11:03 71.27809 19.30794 29140 ft 448 kts 189°
2026-04-27 11:03 71.24751 19.29365 28269 ft 439 kts 189°
2026-04-27 11:03 71.21829 19.28003 27418 ft 429 kts 189°
2026-04-27 11:04 71.18935 19.26658 26545 ft 420 kts 189°
2026-04-27 11:04 71.16106 19.25346 25610 ft 412 kts 189°
2026-04-27 11:04 71.13309 19.24053 24818 ft 403 kts 189°
2026-04-27 11:04 71.10580 19.22801 24240 ft 391 kts 189°
2026-04-27 11:05 71.07942 19.21594 23745 ft 379 kts 189°
2026-04-27 11:05 71.05370 19.20418 23280 ft 370 kts 189°
2026-04-27 11:05 71.02941 19.19309 22851 ft 367 kts 189°
2026-04-27 11:05 71.00588 19.18236 22435 ft 365 kts 189°
2026-04-27 11:06 70.98074 19.17093 21991 ft 364 kts 189°
2026-04-27 11:06 70.95717 19.16025 21573 ft 362 kts 189°
2026-04-27 11:06 70.93253 19.14911 21137 ft 360 kts 189°
2026-04-27 11:06 70.90765 19.13786 20696 ft 359 kts 189°
2026-04-27 11:07 70.88284 19.12669 20255 ft 357 kts 189°
2026-04-27 11:07 70.85853 19.11578 19827 ft 355 kts 189°
2026-04-27 11:07 70.83426 19.10493 19395 ft 353 kts 189°
2026-04-27 11:07 70.81016 19.09417 18970 ft 351 kts 189°
2026-04-27 11:08 70.78602 19.08342 18536 ft 349 kts 189°
2026-04-27 11:08 70.76233 19.07289 18111 ft 347 kts 189°
2026-04-27 11:08 70.73848 19.06229 17683 ft 345 kts 189°
2026-04-27 11:08 70.71523 19.05200 17262 ft 343 kts 189°
2026-04-27 11:09 70.69158 19.04157 16830 ft 342 kts 189°
2026-04-27 11:09 70.66818 19.03126 16397 ft 340 kts 189°
2026-04-27 11:09 70.64484 19.02103 15973 ft 338 kts 189°
2026-04-27 11:09 70.62168 19.01304 15552 ft 337 kts 185°
2026-04-27 11:10 70.59865 19.01056 15162 ft 335 kts 181°
2026-04-27 11:10 70.57546 19.01034 14748 ft 333 kts 181°
2026-04-27 11:10 70.55226 19.01007 14332 ft 331 kts 181°
2026-04-27 11:10 70.52958 19.00976 13925 ft 330 kts 181°
2026-04-27 11:11 70.50680 19.00943 13518 ft 328 kts 181°
2026-04-27 11:11 70.48390 19.00908 13110 ft 326 kts 181°
2026-04-27 11:11 70.46143 19.00874 12713 ft 324 kts 181°
2026-04-27 11:11 70.43916 19.00839 12320 ft 322 kts 181°
2026-04-27 11:12 70.41695 19.00806 11927 ft 320 kts 181°
2026-04-27 11:12 70.39500 19.00774 11535 ft 318 kts 181°
2026-04-27 11:12 70.37286 19.00739 11132 ft 316 kts 182°
2026-04-27 11:12 70.35117 19.00704 10744 ft 314 kts 182°
2026-04-27 11:13 70.32944 19.00669 10372 ft 311 kts 182°
2026-04-27 11:13 70.30827 19.00636 10243 ft 298 kts 182°
2026-04-27 11:13 70.28793 19.00607 10004 ft 291 kts 182°
2026-04-27 11:13 70.26807 19.00573 9647 ft 289 kts 181°
2026-04-27 11:14 70.24793 19.00541 9293 ft 286 kts 183°
2026-04-27 11:14 70.22840 19.00506 8953 ft 284 kts 182°
2026-04-27 11:14 70.20887 19.00475 8619 ft 282 kts 182°
2026-04-27 11:14 70.18938 19.00444 8285 ft 280 kts 182°
2026-04-27 11:15 70.16997 19.00411 7948 ft 278 kts 182°
2026-04-27 11:15 70.15076 19.00380 7617 ft 276 kts 181°
2026-04-27 11:15 70.13194 19.00353 7369 ft 270 kts 181°
2026-04-27 11:15 70.11355 19.00325 7264 ft 258 kts 181°
2026-04-27 11:16 70.09628 19.00313 7224 ft 243 kts 182°
2026-04-27 11:16 70.07981 19.00604 7209 ft 230 kts 174°
2026-04-27 11:16 70.06392 19.01431 6894 ft 232 kts 168°
2026-04-27 11:16 70.04823 19.02422 6586 ft 233 kts 168°
2026-04-27 11:17 70.03259 19.03420 6306 ft 232 kts 169°
2026-04-27 11:17 70.01691 19.04417 6043 ft 229 kts 168°
2026-04-27 11:17 70.00138 19.05387 5786 ft 227 kts 168°
2026-04-27 11:17 69.98615 19.06332 5541 ft 227 kts 169°
2026-04-27 11:18 69.97083 19.07281 5307 ft 224 kts 168°
2026-04-27 11:18 69.95554 19.08084 5227 ft 223 kts 172°
2026-04-27 11:18 69.94004 19.08509 5220 ft 224 kts 181°
2026-04-27 11:18 69.92487 19.08171 5134 ft 220 kts 191°
2026-04-27 11:19 69.90977 19.07232 4810 ft 223 kts 196°
2026-04-27 11:19 69.89515 19.06127 4720 ft 214 kts 197°
2026-04-27 11:19 69.88093 19.05077 4628 ft 204 kts 196°
2026-04-27 11:19 69.86738 19.04128 4566 ft 200 kts 195°
2026-04-27 11:20 69.85377 19.03210 4463 ft 200 kts 195°
2026-04-27 11:20 69.84039 19.02325 4163 ft 200 kts 195°
2026-04-27 11:20 69.82683 19.01433 3791 ft 198 kts 194°
2026-04-27 11:20 69.81361 19.00562 3428 ft 197 kts 194°
2026-04-27 11:21 69.80056 18.99701 3148 ft 187 kts 194°
2026-04-27 11:21 69.78803 18.98869 2793 ft 183 kts 194°
2026-04-27 11:21 69.77598 18.98067 2436 ft 177 kts 194°
2026-04-27 11:21 69.76430 18.97291 2087 ft 167 kts 194°
2026-04-27 11:22 69.75337 18.96566 1771 ft 157 kts 195°
2026-04-27 11:22 69.74318 18.95889 1490 ft 146 kts 195°
2026-04-27 11:22 69.73358 18.95249 1227 ft 136 kts 195°
2026-04-27 11:22 69.72475 18.94660 977 ft 129 kts 195°
2026-04-27 11:23 69.71610 18.94082 748 ft 128 kts 195°
2026-04-27 11:23 69.70756 18.93504 503 ft 126 kts 194°
2026-04-27 11:23 69.69913 18.92960 271 ft 124 kts 194°
2026-04-27 11:23 69.69076 18.92408 44 ft 121 kts 195°
2026-04-27 11:24 69.68340 18.91893 -4 ft 78 kts 193°
2026-04-27 11:24 69.68079 18.91711 -2 ft 13 kts 207°
2026-04-27 11:24 69.68067 18.91506 -3 ft 9 kts 281°
2026-04-27 11:24 69.68061 18.91329 -3 ft 10 kts 215°
2026-04-27 11:25 69.67989 18.91275 -3 ft 11 kts 192°
2026-04-27 11:25 69.67923 18.91230 -2 ft 6 kts 197°
2026-04-27 11:25 69.67911 18.91107 -2 ft 8 kts 283°
2026-04-27 11:25 69.67923 18.90970 -3 ft 5 kts 283°
2026-04-27 11:26 69.67928 18.90899 -3 ft 0 kts 282°